Location: Poe
(41.0917°N, 81.8257°W)
Time: 18:59:39
(UTC+00:00)

Daily predictions for brighter satellites

Satellite Brightness Start Highest point End
(mag) Time Altitude Azimuth Time Altitude Azimuth Time Altitude Azimuth
STARLINK-1056 4.1 23:39:28 10° WSW 23:43:33 61° NW 23:47:40 10° NE
Meteor 1-27 Rocket 4.4 23:41:29 10° NNW 23:47:01 63° W 23:52:38 10° S
Cosmos 1470 Rocket 3.8 23:43:38 10° SSW 23:47:59 77° W 23:52:25 10° N
STARLINK-1054 4.2 23:44:28 10° WSW 23:48:32 56° NW 23:52:37 10° NE
Cosmos 2369 Rocket 3.8 23:43:43 10° SW 23:48:54 36° WNW 23:54:08 10° N
Cosmos 1464 Rocket 4.3 23:44:00 10° SSE 23:49:59 46° E 23:56:02 10° NNE
CZ-2D R/B 3.5 23:48:07 10° SSE 23:51:51 48° ENE 23:55:37 10° N
Okean 1-7 3.6 23:48:29 10° N 23:52:29 35° ENE 23:56:29 10° SE
STARLINK-1062 4.3 23:49:29 10° WSW 23:53:30 52° NNW 23:57:34 10° NE
Cosmos 1939 Rocket 3.0 23:51:09 10° SSE 23:55:13 57° ENE 23:59:17 10° N
Ariane Rocket 3.9 23:51:27 10° ESE 23:55:41 27° ENE 23:59:55 10° N
Hubble Space Telescope 3.4 23:56:20 10° SSW 23:57:36 11° SSW 23:58:52 10° S
